Tracking 19846 objects as of 20-Sep-2019
HD Live streaming from Space Station
objects crossing your sky now

ESSA 8 (TOS-F)

Track ESSA 8 (TOS-F) now!
10-day predictions
ESSA 8 (TOS-F) is classified as:


NORAD ID: 3615
Int'l Code: 1968-114A
Perigee: 1,420.6 km
Apogee: 1,470.9 km
Inclination: 101.3 °
Period: 114.6 minutes
Semi major axis: 7816 km
RCS: 0.8417 m2 (medium)
Launch date: December 15, 1968
Source: United States (US)
Launch site: AIR FORCE WESTERN TEST RANGE (AFWTR)
aabbcc
Your satellite tracking list
Your tracking list is empty




NASA's NSSDC Master Catalog

Two Line Element Set (TLE):
1  3615U 68114A   19262.44292319 -.00000035  00000-0  48874-4 0  9993
2  3615 101.3336 233.9769 0032184 102.3711  48.7768 12.56203949327751
Source of the keplerian elements: AFSPC